Location: Ar Ranvel
(48.3000°N, 4.8833°W)
Time: 12:44:33
(UTC+00:00)

Cosmos 2322 Rocket - Visible Passes

Search period start: 23 October 2021 00:00
Search period end: 02 November 2021 00:00
Orbit: 833 x 850 km, 71.0° (Epoch: 22 October)

Date Brightness Start Highest point End Pass type
(mag) Time Alt. Az. Time Alt. Az. Time Alt. Az.
23 Oct 3.3 03:29:37 35° NNE 03:31:04 41° NE 03:36:25 10° ESE visible
23 Oct 2.6 05:11:34 19° NW 05:15:04 38° WSW 05:20:14 10° S visible
23 Oct 2.6 18:20:57 10° S 18:26:06 39° ESE 18:31:18 10° NE visible
23 Oct 3.4 20:04:55 10° WSW 20:10:09 39° NW 20:14:53 13° NNE visible
23 Oct 5.0 21:54:05 10° NW 21:55:55 11° NNW 21:56:44 11° NNW visible
24 Oct 3.5 03:16:56 37° ENE 03:16:56 37° ENE 03:21:18 10° ESE visible
24 Oct 2.6 04:58:54 35° W 05:00:02 39° WSW 05:05:16 10° S visible
24 Oct 2.7 18:05:58 10° S 18:11:04 38° ESE 18:16:13 10° NE visible
24 Oct 3.3 19:49:48 10° WSW 19:55:05 41° NW 20:00:24 10° NNE visible
24 Oct 5.0 21:38:46 10° NW 21:40:47 12° NNW 21:42:25 11° NNW visible
25 Oct 4.3 03:04:18 20° ESE 03:04:18 20° ESE 03:06:11 10° ESE visible
25 Oct 2.8 04:46:15 36° SW 04:46:15 36° SW 04:50:17 10° S visible
25 Oct 2.8 17:51:00 10° S 17:56:02 36° ESE 18:01:07 10° NE visible
25 Oct 3.3 19:34:41 10° SW 19:40:00 43° NW 19:45:22 10° NNE visible
25 Oct 5.0 21:23:28 10° NW 21:25:40 12° NNW 21:27:53 10° N visible
26 Oct 3.8 04:33:33 20° S 04:33:33 20° S 04:35:18 10° S visible
26 Oct 2.9 17:36:01 10° S 17:41:01 34° ESE 17:46:01 10° NE visible
26 Oct 3.2 19:19:34 10° SW 19:24:55 44° NW 19:30:20 10° NNE visible
26 Oct 4.9 21:08:11 10° NW 21:10:33 13° NNW 21:12:56 10° N visible
27 Oct 3.1 19:04:28 10° SW 19:09:51 46° NW 19:15:18 10° NNE visible
27 Oct 4.9 20:52:55 10° WNW 20:55:26 13° NNW 20:57:57 10° N visible
28 Oct 3.1 18:49:21 10° SW 18:54:47 48° NW 19:00:15 10° NNE visible
28 Oct 4.8 20:37:38 10° WNW 20:40:18 13° NNW 20:42:59 10° N visible
29 Oct 3.0 18:34:16 10° SW 18:39:42 51° NW 18:45:13 10° NNE visible
29 Oct 4.8 20:22:23 10° WNW 20:25:11 14° NNW 20:28:00 10° N visible
30 Oct 3.0 18:19:10 10° SW 18:24:38 53° WNW 18:30:10 10° NNE visible
30 Oct 4.8 20:07:08 10° WNW 20:10:04 14° NNW 20:13:01 10° N visible
31 Oct 2.9 18:04:04 10° SW 18:09:34 55° WNW 18:15:08 10° NNE visible
31 Oct 4.7 19:51:54 10° WNW 19:54:58 15° NNW 19:58:02 10° N visible
01 Nov 2.8 17:48:59 10° SW 17:54:30 58° WNW 18:00:05 10° NNE visible
01 Nov 4.7 19:36:39 10° WNW 19:39:51 15° NW 19:43:02 10° N visible
